| time (UTC) | temp F | wind direction | speed MPH | gust MPH | rain 1hr in | rain 24hr in | rain mn in | humidity % | barometer mb |
| 20260510175021 | 59 | 286 | 4.0 | 11.0 | 0.06 | 0.00 | 0.12 | 80 | 1009.5 |
| 20260510174529 | 59 | 284 | 5.0 | 12.0 | 0.06 | 0.00 | 0.12 | 80 | 1009.5 |
| 20260510174035 | 59 | 295 | 6.0 | 15.0 | 0.06 | 0.00 | 0.11 | 80 | 1009.1 |
| 20260510173523 | 59 | 281 | 7.0 | 15.0 | 0.06 | 0.00 | 0.11 | 80 | 1009.1 |
| 20260510173029 | 60 | 302 | 8.0 | 12.0 | 0.04 | 0.00 | 0.09 | 80 | 1009.1 |
| 20260510172027 | 61 | 280 | 9.0 | 15.0 | 0.02 | 0.00 | 0.07 | 80 | 1009.0 |
| 20260510171027 | 61 | 291 | 7.0 | 12.0 | 0.00 | 0.00 | 0.06 | 80 | 1008.9 |
| 20260510170550 | 62 | 276 | 7.0 | 11.0 | 0.00 | 0.00 | 0.06 | 80 | 1008.9 |
| 20260510170037 | 62 | 290 | 5.0 | 9.0 | 0.00 | 0.00 | 0.06 | 72 | 1008.9 |
| 20260510165031 | 63 | 323 | 6.0 | 11.0 | 0.00 | 0.00 | 0.06 | 60 | 1008.7 |
| 20260510164030 | 65 | 316 | 7.0 | 11.0 | 0.00 | 0.00 | 0.06 | 52 | 1008.4 |
| 20260510163538 | 66 | 294 | 6.0 | 11.0 | 0.00 | 0.00 | 0.06 | 48 | 1008.4 |
| 20260510163025 | 67 | 238 | 4.0 | 11.0 | 0.00 | 0.00 | 0.06 | 41 | 1008.4 |
| 20260510162533 | 67 | 253 | 4.0 | 14.0 | 0.00 | 0.00 | 0.06 | 39 | 1007.9 |
| 20260510161039 | 67 | 200 | 7.0 | 11.0 | 0.00 | 0.00 | 0.06 | 43 | 1007.7 |
| 20260510160601 | 67 | 293 | 5.0 | 13.0 | 0.00 | 0.00 | 0.06 | 48 | 1007.7 |
| 20260510160029 | 67 | 227 | 7.0 | 13.0 | 0.00 | 0.00 | 0.06 | 46 | 1007.7 |
| 20260510155537 | 67 | 236 | 5.0 | 12.0 | 0.00 | 0.00 | 0.06 | 49 | 1007.5 |
| 20260510155020 | 67 | 288 | 3.0 | 10.0 | 0.00 | 0.00 | 0.06 | 52 | 1007.5 |
| 20260510154527 | 66 | 262 | 6.0 | 11.0 | 0.00 | 0.00 | 0.06 | 52 | 1007.5 |
| 20260510154032 | 66 | 208 | 6.0 | 11.0 | 0.02 | 0.00 | 0.06 | 51 | 1007.5 |
| 20260510153522 | 66 | 241 | 4.0 | 10.0 | 0.06 | 0.00 | 0.06 | 49 | 1007.5 |
| 20260510153028 | 66 | 214 | 5.0 | 10.0 | 0.06 | 0.00 | 0.06 | 50 | 1007.5 |
| 20260510152537 | 66 | 229 | 6.0 | 10.0 | 0.06 | 0.00 | 0.06 | 48 | 1007.5 |
| 20260510152024 | 66 | 299 | 4.0 | 10.0 | 0.06 | 0.00 | 0.06 | 47 | 1007.5 |
| 20260510151531 | 66 | 258 | 3.0 | 11.0 | 0.06 | 0.00 | 0.06 | 46 | 1007.5 |
| 20260510151039 | 65 | 220 | 4.0 | 11.0 | 0.06 | 0.00 | 0.06 | 53 | 1007.4 |
| 20260510150601 | 65 | 227 | 4.0 | 11.0 | 0.06 | 0.00 | 0.06 | 57 | 1007.4 |
| 20260510150021 | 63 | 240 | 5.0 | 11.0 | 0.06 | 0.00 | 0.06 | 55 | 1007.4 |
| 20260510145037 | 63 | 158 | 2.0 | 12.0 | 0.06 | 0.00 | 0.06 | 52 | 1007.7 |
| 20260510144529 | 63 | 248 | 7.0 | 17.0 | 0.06 | 0.00 | 0.06 | 48 | 1007.7 |
| 20260510144033 | 65 | 149 | 4.0 | 17.0 | 0.05 | 0.00 | 0.05 | 43 | 1007.3 |
| 20260510143540 | 66 | 158 | 7.0 | 15.0 | 0.00 | 0.00 | 0.00 | 31 | 1007.3 |
| 20260510143029 | 67 | 255 | 3.0 | 7.0 | 0.00 | 0.00 | 0.00 | 29 | 1007.3 |
| 20260510142034 | 67 | 195 | 4.0 | 13.0 | 0.00 | 0.00 | 0.00 | 27 | 1007.4 |
| 20260510141526 | 67 | 177 | 8.0 | 13.0 | 0.00 | 0.00 | 0.00 | 27 | 1007.4 |
| 20260510141034 | 67 | 195 | 4.0 | 11.0 | 0.00 | 0.00 | 0.00 | 27 | 1007.2 |
| 20260510140553 | 67 | 169 | 5.0 | 13.0 | 0.00 | 0.00 | 0.00 | 29 | 1007.2 |
| 20260510140037 | 67 | 96 | 5.0 | 13.0 | 0.00 | 0.00 | 0.00 | 28 | 1007.2 |
| 20260510135526 | 67 | 108 | 6.0 | 14.0 | 0.00 | 0.00 | 0.00 | 28 | 1007.3 |
| 20260510135045 | 67 | 91 | 8.0 | 14.0 | 0.00 | 0.00 | 0.00 | 28 | 1007.3 |
| 20260510134539 | 67 | 156 | 5.0 | 13.0 | 0.00 | 0.00 | 0.00 | 28 | 1007.3 |
| 20260510134042 | 67 | 150 | 7.0 | 14.0 | 0.00 | 0.00 | 0.00 | 25 | 1007.3 |
| 20260510133034 | 67 | 131 | 4.0 | 13.0 | 0.00 | 0.00 | 0.00 | 25 | 1007.3 |
| 20260510132530 | 66 | 77 | 5.0 | 13.0 | 0.00 | 0.00 | 0.00 | 27 | 1007.2 |
| 20260510132034 | 66 | 127 | 4.0 | 14.0 | 0.00 | 0.00 | 0.00 | 26 | 1007.2 |
| 20260510130551 | 65 | 141 | 4.0 | 12.0 | 0.00 | 0.00 | 0.00 | 25 | 1007.1 |
| 20260510130034 | 64 | 100 | 7.0 | 14.0 | 0.00 | 0.00 | 0.00 | 26 | 1007.1 |
| 20260510125525 | 64 | 142 | 8.0 | 14.0 | 0.00 | 0.00 | 0.00 | 28 | 1007.9 |
| 20260510125029 | 64 | 95 | 5.0 | 9.0 | 0.00 | 0.00 | 0.00 | 31 | 1007.9 |
| 20260510124536 | 63 | 130 | 6.0 | 16.0 | 0.00 | 0.00 | 0.00 | 31 | 1007.9 |
| 20260510124043 | 64 | 173 | 8.0 | 27.0 | 0.00 | 0.00 | 0.00 | 31 | 1008.6 |
| 20260510123526 | 65 | 186 | 16.0 | 27.0 | 0.00 | 0.00 | 0.00 | 31 | 1008.6 |
| 20260510123036 | 65 | 153 | 10.0 | 20.0 | 0.00 | 0.00 | 0.00 | 29 | 1008.6 |
| 20260510122523 | 66 | 156 | 6.0 | 14.0 | 0.00 | 0.00 | 0.00 | 30 | 1008.7 |
| 20260510121536 | 66 | 154 | 4.0 | 11.0 | 0.00 | 0.00 | 0.00 | 31 | 1008.7 |
| 20260510121021 | 66 | 114 | 5.0 | 12.0 | 0.00 | 0.00 | 0.00 | 30 | 1008.7 |
| 20260510120545 | 66 | 169 | 3.0 | 12.0 | 0.00 | 0.00 | 0.00 | 31 | 1008.7 |
| 20260510120026 | 66 | 143 | 7.0 | 15.0 | 0.00 | 0.00 | 0.00 | 30 | 1008.7 |
| 20260510115537 | 67 | 165 | 8.0 | 15.0 | 0.00 | 0.00 | 0.00 | 29 | 1008.6 |
| 20260510115022 | 66 | 151 | 5.0 | 11.0 | 0.00 | 0.00 | 0.00 | 33 | 1008.5 |
| 20260510114531 | 66 | 113 | 7.0 | 11.0 | 0.00 | 0.00 | 0.00 | 35 | 1008.5 |
| 20260510114035 | 64 | 163 | 6.0 | 10.0 | 0.00 | 0.00 | 0.00 | 40 | 1008.5 |
| 20260510113531 | 63 | 172 | 5.0 | 10.0 | 0.00 | 0.00 | 0.00 | 51 | 1008.5 |
| 20260510111526 | 63 | 30 | 5.0 | 12.0 | 0.00 | 0.00 | 0.00 | 59 | 1008.6 |
| 20260510111033 | 64 | 360 | 7.0 | 12.0 | 0.00 | 0.00 | 0.00 | 56 | 1008.6 |
| 20260510110554 | 64 | 360 | 5.0 | 10.0 | 0.00 | 0.00 | 0.00 | 50 | 1008.6 |
| 20260510110037 | 64 | 332 | 5.0 | 13.0 | 0.00 | 0.00 | 0.00 | 46 | 1008.6 |
| 20260510105526 | 65 | 341 | 10.0 | 13.0 | 0.00 | 0.00 | 0.00 | 50 | 1008.6 |
| 20260510105033 | 66 | 334 | 5.0 | 10.0 | 0.00 | 0.00 | 0.00 | 47 | 1008.6 |
| 20260510104521 | 65 | 360 | 3.0 | 10.0 | 0.00 | 0.00 | 0.00 | 44 | 1008.6 |
| 20260510104032 | 66 | 18 | 3.0 | 7.0 | 0.00 | 0.00 | 0.00 | 46 | 1008.4 |
| 20260510103539 | 67 | 360 | 5.0 | 7.0 | 0.00 | 0.00 | 0.00 | 42 | 1008.4 |
| 20260510103027 | 68 | 360 | 4.0 | 11.0 | 0.00 | 0.00 | 0.00 | 35 | 1008.4 |
| 20260510102538 | 68 | 205 | 3.0 | 11.0 | 0.00 | 0.00 | 0.00 | 32 | 1008.4 |
| 20260510102025 | 68 | 259 | 4.0 | 10.0 | 0.00 | 0.00 | 0.00 | 37 | 1008.4 |
| 20260510101535 | 69 | 292 | 1.0 | 4.0 | 0.00 | 0.00 | 0.00 | 34 | 1008.4 |
| 20260510101039 | 69 | 263 | 2.0 | 6.0 | 0.00 | 0.00 | 0.00 | 33 | 1008.3 |
| 20260510100601 | 70 | 220 | 2.0 | 9.0 | 0.00 | 0.00 | 0.00 | 24 | 1008.3 |
| 20260510100024 | 69 | 193 | 4.0 | 9.0 | 0.00 | 0.00 | 0.00 | 23 | 1008.3 |
| 20260510095531 | 69 | 141 | 3.0 | 11.0 | 0.00 | 0.00 | 0.00 | 24 | 1008.4 |
| 20260510095035 | 70 | 204 | 4.0 | 11.0 | 0.00 | 0.00 | 0.00 | 25 | 1008.4 |
| 20260510094524 | 70 | 96 | 3.0 | 12.0 | 0.00 | 0.00 | 0.00 | 28 | 1008.4 |
| 20260510094032 | 70 | 118 | 8.0 | 14.0 | 0.00 | 0.00 | 0.00 | 25 | 1008.4 |
| 20260510093520 | 70 | 103 | 7.0 | 14.0 | 0.00 | 0.00 | 0.00 | 24 | 1008.4 |
| 20260510093025 | 70 | 133 | 6.0 | 10.0 | 0.00 | 0.00 | 0.00 | 25 | 1008.4 |
| 20260510092533 | 69 | 82 | 5.0 | 9.0 | 0.00 | 0.00 | 0.00 | 26 | 1008.5 |
| 20260510091527 | 68 | 100 | 4.0 | 7.0 | 0.00 | 0.00 | 0.00 | 28 | 1008.5 |
| 20260510091034 | 67 | 131 | 3.0 | 7.0 | 0.00 | 0.00 | 0.00 | 31 | 1008.4 |
| 20260510090557 | 67 | 41 | 5.0 | 7.0 | 0.00 | 0.00 | 0.00 | 34 | 1008.4 |
| 20260510090025 | 68 | 48 | 4.0 | 5.0 | 0.00 | 0.00 | 0.00 | 32 | 1008.4 |
| 20260510084536 | 69 | 87 | 4.0 | 7.0 | 0.00 | 0.00 | 0.00 | 26 | 1008.4 |
| 20260510084022 | 68 | 93 | 3.0 | 10.0 | 0.00 | 0.00 | 0.00 | 28 | 1008.5 |
| 20260510083530 | 68 | 60 | 3.0 | 10.0 | 0.00 | 0.00 | 0.00 | 29 | 1008.5 |
| 20260510083035 | 68 | 88 | 4.0 | 13.0 | 0.00 | 0.00 | 0.00 | 29 | 1008.5 |
| 20260510081522 | 68 | 109 | 2.0 | 5.0 | 0.00 | 0.00 | 0.00 | 29 | 1008.6 |
| 20260510080550 | 66 | 154 | 1.0 | 4.0 | 0.00 | 0.00 | 0.00 | 34 | 1008.7 |
| 20260510080033 | 66 | 103 | 1.0 | 4.0 | 0.00 | 0.00 | 0.00 | 34 | 1008.7 |
| 20260510075525 | 66 | 55 | 3.0 | 4.0 | 0.00 | 0.00 | 0.00 | 37 | 1008.7 |
| 20260510075033 | 66 | 77 | 0.0 | 3.0 | 0.00 | 0.00 | 0.00 | 35 | 1008.7 |
| 20260510074523 | 66 | 77 | 2.0 | 4.0 | 0.00 | 0.00 | 0.00 | 37 | 1008.7 |
| 20260510074027 | 67 | 108 | 3.0 | 4.0 | 0.00 | 0.00 | 0.00 | 37 | 1008.5 |
| 20260510073026 | 66 | 96 | 2.0 | 4.0 | 0.00 | 0.00 | 0.00 | 43 | 1008.5 |
| 20260510072533 | 66 | 141 | 1.0 | 3.0 | 0.00 | 0.00 | 0.00 | 44 | 1008.4 |
| 20260510072037 | 65 | 141 | 1.0 | 4.0 | 0.00 | 0.00 | 0.00 | 50 | 1008.4 |
| 20260510071527 | 65 | 110 | 3.0 | 4.0 | 0.00 | 0.00 | 0.00 | 56 | 1008.4 |
| 20260510071032 | 65 | 119 | 2.0 | 3.0 | 0.00 | 0.00 | 0.00 | 59 | 1008.2 |
| 20260510070557 | 64 | 184 | 1.0 | 3.0 | 0.00 | 0.00 | 0.00 | 75 | 1008.2 |
| 20260510065023 | 62 | 184 | 1.0 | 3.0 | 0.00 | 0.00 | 0.00 | 80 | 1008.1 |
| 20260510064533 | 62 | 184 | 1.0 | 3.0 | 0.00 | 0.00 | 0.00 | 80 | 1008.1 |
| 20260510064038 | 62 | 184 | 1.0 | 3.0 | 0.00 | 0.00 | 0.00 | 80 | 1007.9 |
| 20260510063035 | 60 | 183 | 2.0 | 3.0 | 0.00 | 0.00 | 0.00 | 80 | 1007.9 |
| 20260510062526 | 60 | 221 | 1.0 | 2.0 | 0.00 | 0.00 | 0.00 | 80 | 1007.9 |
| 20260510001535 | 62 | 183 | 11.0 | 18.0 | 0.00 | 0.13 | 0.00 | 59 | 1006.8 |
| 20260510001039 | 62 | 104 | 8.0 | 15.0 | 0.00 | 0.13 | 0.00 | 59 | 1006.9 |
| 20260510000601 | 62 | 141 | 9.0 | 18.0 | 0.00 | 0.13 | 0.00 | 60 | 1006.9 |
| 20260510000024 | 61 | 137 | 8.0 | 18.0 | 0.00 | 0.13 | 0.00 | 61 | 1006.9 |
| 20260509235039 | 61 | 150 | 9.0 | 19.0 | 0.00 | 0.13 | 0.13 | 73 | 1007.2 |
| 20260509234528 | 61 | 127 | 6.0 | 19.0 | 0.00 | 0.13 | 0.13 | 76 | 1007.2 |
| 20260509234033 | 60 | 112 | 8.0 | 14.0 | 0.00 | 0.13 | 0.13 | 80 | 1007.3 |
| 20260509233522 | 60 | 135 | 6.0 | 11.0 | 0.00 | 0.13 | 0.13 | 80 | 1007.3 |
| 20260509233032 | 60 | 133 | 8.0 | 12.0 | 0.00 | 0.13 | 0.13 | 80 | 1007.3 |
| 20260509232540 | 60 | 143 | 7.0 | 12.0 | 0.00 | 0.13 | 0.13 | 80 | 1007.3 |
| 20260509232024 | 60 | 123 | 6.0 | 10.0 | 0.00 | 0.13 | 0.13 | 80 | 1007.3 |
| 20260509231532 | 60 | 151 | 6.0 | 11.0 | 0.00 | 0.13 | 0.13 | 80 | 1007.3 |
| 20260509231038 | 60 | 127 | 7.0 | 12.0 | 0.00 | 0.13 | 0.13 | 80 | 1007.2 |
| 20260509230601 | 60 | 122 | 5.0 | 13.0 | 0.00 | 0.13 | 0.13 | 80 | 1007.2 |
| 20260509230023 | 60 | 155 | 7.0 | 12.0 | 0.00 | 0.13 | 0.13 | 80 | 1007.2 |
| 20260509225039 | 60 | 134 | 6.0 | 11.0 | 0.00 | 0.13 | 0.13 | 80 | 1007.1 |
| 20260509224527 | 60 | 143 | 4.0 | 8.0 | 0.01 | 0.13 | 0.13 | 80 | 1007.1 |
| 20260509223035 | 60 | 129 | 6.0 | 13.0 | 0.01 | 0.13 | 0.13 | 80 | 1006.9 |
| 20260509222521 | 60 | 148 | 7.0 | 13.0 | 0.01 | 0.13 | 0.13 | 80 | 1007.3 |
| 20260509222026 | 60 | 170 | 7.0 | 14.0 | 0.01 | 0.13 | 0.13 | 80 | 1007.3 |
| 20260509221533 | 60 | 146 | 7.0 | 14.0 | 0.01 | 0.13 | 0.13 | 80 | 1007.3 |
| 20260509220601 | 61 | 151 | 8.0 | 14.0 | 0.01 | 0.13 | 0.13 | 80 | 1007.2 |
| 20260509220022 | 61 | 183 | 6.0 | 12.0 | 0.01 | 0.13 | 0.13 | 80 | 1007.2 |
| 20260509215528 | 62 | 164 | 5.0 | 10.0 | 0.01 | 0.13 | 0.13 | 80 | 1007.2 |
| 20260509215033 | 62 | 120 | 5.0 | 11.0 | 0.01 | 0.13 | 0.13 | 80 | 1007.2 |
| 20260509214521 | 62 | 180 | 5.0 | 13.0 | 0.00 | 0.13 | 0.13 | 80 | 1007.2 |
| 20260509214025 | 62 | 118 | 5.0 | 13.0 | 0.00 | 0.13 | 0.13 | 80 | 1007.5 |
| 20260509213538 | 62 | 136 | 5.0 | 11.0 | 0.00 | 0.13 | 0.13 | 80 | 1007.5 |
| 20260509213021 | 62 | 172 | 6.0 | 11.0 | 0.00 | 0.13 | 0.13 | 80 | 1007.5 |
| 20260509212531 | 62 | 131 | 3.0 | 6.0 | 0.00 | 0.13 | 0.13 | 80 | 1007.5 |
| 20260509212037 | 62 | 139 | 3.0 | 7.0 | 0.00 | 0.13 | 0.13 | 80 | 1007.5 |
| 20260509211526 | 62 | 139 | 6.0 | 7.0 | 0.00 | 0.13 | 0.13 | 80 | 1007.5 |
| 20260509211031 | 62 | 215 | 2.0 | 5.0 | 0.00 | 0.13 | 0.13 | 80 | 1007.5 |
| 20260509210553 | 62 | 208 | 2.0 | 5.0 | 0.00 | 0.13 | 0.13 | 80 | 1007.5 |
| 20260509205031 | 63 | 238 | 1.0 | 5.0 | 0.00 | 0.13 | 0.13 | 80 | 1007.3 |
| 20260509204536 | 63 | 226 | 2.0 | 8.0 | 0.00 | 0.13 | 0.13 | 80 | 1007.3 |
| 20260509204026 | 63 | 272 | 6.0 | 9.0 | 0.00 | 0.13 | 0.13 | 80 | 1006.7 |
| 20260509202528 | 62 | 134 | 4.0 | 9.0 | 0.00 | 0.13 | 0.13 | 80 | 1006.5 |
| 20260509202031 | 62 | 86 | 4.0 | 6.0 | 0.00 | 0.13 | 0.13 | 80 | 1006.5 |
| 20260509201520 | 62 | 99 | 4.0 | 6.0 | 0.00 | 0.13 | 0.13 | 80 | 1006.5 |
| 20260509201026 | 62 | 88 | 5.0 | 6.0 | 0.00 | 0.13 | 0.13 | 80 | 1006.1 |
| 20260509200547 | 62 | 124 | 4.0 | 6.0 | 0.00 | 0.13 | 0.13 | 80 | 1006.1 |
| 20260509200026 | 62 | 90 | 4.0 | 6.0 | 0.00 | 0.13 | 0.13 | 80 | 1006.1 |
| 20260509195535 | 62 | 89 | 4.0 | 6.0 | 0.00 | 0.13 | 0.13 | 80 | 1005.9 |
| 20260509195022 | 62 | 85 | 3.0 | 6.0 | 0.00 | 0.13 | 0.13 | 80 | 1005.9 |
| 20260509194533 | 62 | 92 | 4.0 | 5.0 | 0.00 | 0.13 | 0.13 | 80 | 1005.9 |
| 20260509194021 | 62 | 98 | 3.0 | 5.0 | 0.00 | 0.13 | 0.13 | 80 | 1005.7 |
| 20260509193529 | 62 | 84 | 4.0 | 5.0 | 0.00 | 0.13 | 0.13 | 80 | 1005.7 |
| 20260509193035 | 62 | 91 | 2.0 | 7.0 | 0.00 | 0.13 | 0.13 | 80 | 1005.7 |
| 20260509192521 | 62 | 78 | 3.0 | 7.0 | 0.00 | 0.13 | 0.13 | 80 | 1005.7 |
| 20260509192028 | 62 | 98 | 4.0 | 7.0 | 0.00 | 0.13 | 0.13 | 80 | 1005.7 |
| 20260509191537 | 62 | 114 | 2.0 | 6.0 | 0.00 | 0.13 | 0.13 | 80 | 1005.7 |
| 20260509190545 | 62 | 94 | 3.0 | 11.0 | 0.00 | 0.13 | 0.13 | 80 | 1005.3 |
| 20260509190027 | 63 | 75 | 4.0 | 11.0 | 0.00 | 0.13 | 0.13 | 80 | 1005.3 |
| 20260509185535 | 63 | 58 | 6.0 | 11.0 | 0.00 | 0.13 | 0.13 | 80 | 1005.2 |
| 20260509185022 | 63 | 71 | 6.0 | 10.0 | 0.00 | 0.13 | 0.13 | 80 | 1005.2 |
| 20260509184529 | 63 | 63 | 6.0 | 12.0 | 0.00 | 0.13 | 0.13 | 80 | 1005.2 |
| 20260509184034 | 63 | 75 | 5.0 | 12.0 | 0.00 | 0.13 | 0.13 | 80 | 1005.4 |
| 20260509183522 | 63 | 62 | 5.0 | 10.0 | 0.00 | 0.13 | 0.13 | 80 | 1005.4 |
| 20260509183027 | 63 | 60 | 5.0 | 7.0 | 0.00 | 0.13 | 0.13 | 80 | 1005.4 |
| 20260509182535 | 63 | 65 | 4.0 | 6.0 | 0.00 | 0.13 | 0.13 | 80 | 1005.6 |
| 20260509182039 | 63 | 23 | 3.0 | 6.0 | 0.00 | 0.13 | 0.13 | 80 | 1005.6 |
| 20260509181528 | 63 | 18 | 3.0 | 10.0 | 0.00 | 0.15 | 0.13 | 80 | 1005.6 |
| 20260509181035 | 64 | 14 | 4.0 | 10.0 | 0.00 | 0.15 | 0.13 | 80 | 1005.5 |
| 20260509180557 | 64 | 7 | 6.0 | 7.0 | 0.00 | 0.15 | 0.13 | 80 | 1005.5 |
| 20260509180022 | 65 | 38 | 2.0 | 4.0 | 0.00 | 0.15 | 0.13 | 80 | 1005.5 |
| 20260509175531 | 65 | 47 | 1.0 | 3.0 | 0.00 | 0.15 | 0.13 | 80 | 1005.4 |